| time (UTC) | temp F | wind direction | speed knots | gust knots | rain 1hr in | rain 24hr in | rain mn in | humidity % | barometer mb |
| 20260508100503 | 35 | 0 | 0.0 | 0.0 | 0.00 | 0.00 | 0.00 | 93 | 1005.2 |
| 20260508100004 | 35 | 0 | 0.0 | 0.0 | 0.00 | 0.00 | 0.00 | 92 | 1005.2 |
| 20260508095503 | 35 | 0 | 0.0 | 0.0 | 0.00 | 0.00 | 0.00 | 92 | 1005.2 |
| 20260508095212 | 35 | 0 | 0.0 | 0.0 | 0.00 | 0.00 | 0.00 | 92 | 1005.3 |
| 20260508094503 | 34 | 322 | 0.0 | 1.7 | 0.00 | 0.00 | 0.00 | 92 | 1005.1 |
| 20260508094003 | 34 | 322 | 0.0 | 1.7 | 0.00 | 0.00 | 0.00 | 92 | 1005.0 |
| 20260508093503 | 34 | 322 | 0.0 | 0.9 | 0.00 | 0.00 | 0.00 | 92 | 1005.0 |
| 20260508093003 | 34 | 322 | 0.0 | 0.9 | 0.00 | 0.00 | 0.00 | 91 | 1005.1 |
| 20260508092503 | 34 | 322 | 0.0 | 1.7 | 0.00 | 0.00 | 0.00 | 91 | 1005.0 |
| 20260508092003 | 34 | 322 | 0.0 | 1.7 | 0.00 | 0.00 | 0.00 | 91 | 1005.1 |
| 20260508091503 | 34 | 322 | 0.0 | 1.7 | 0.00 | 0.00 | 0.00 | 91 | 1005.0 |
| 20260508091003 | 35 | 322 | 0.0 | 1.7 | 0.00 | 0.00 | 0.00 | 91 | 1004.9 |
| 20260508090503 | 35 | 322 | 0.0 | 1.7 | 0.00 | 0.00 | 0.00 | 90 | 1004.9 |
| 20260508090003 | 35 | 322 | 0.0 | 0.9 | 0.00 | 0.00 | 0.00 | 90 | 1004.7 |
| 20260508085503 | 35 | 322 | 0.0 | 0.9 | 0.00 | 0.00 | 0.00 | 90 | 1004.7 |
| 20260508085003 | 35 | 0 | 0.0 | 0.0 | 0.00 | 0.00 | 0.00 | 90 | 1004.7 |
| 20260508084713 | 35 | 0 | 0.0 | 0.0 | 0.00 | 0.00 | 0.00 | 89 | 1004.7 |
| 20260508084003 | 35 | 0 | 0.0 | 0.0 | 0.00 | 0.00 | 0.00 | 89 | 1004.8 |
| 20260508083503 | 35 | 0 | 0.0 | 0.0 | 0.00 | 0.00 | 0.00 | 89 | 1004.8 |
| 20260508083003 | 35 | 0 | 0.0 | 0.0 | 0.00 | 0.00 | 0.00 | 89 | 1004.8 |
| 20260508082713 | 35 | 0 | 0.0 | 0.0 | 0.00 | 0.00 | 0.00 | 89 | 1004.8 |
| 20260508082003 | 36 | 0 | 0.0 | 0.0 | 0.00 | 0.00 | 0.00 | 89 | 1004.8 |
| 20260508081503 | 36 | 0 | 0.0 | 0.0 | 0.00 | 0.00 | 0.00 | 88 | 1004.8 |
| 20260508081003 | 36 | 0 | 0.0 | 0.0 | 0.00 | 0.00 | 0.00 | 88 | 1004.8 |
| 20260508080503 | 36 | 0 | 0.0 | 0.0 | 0.00 | 0.00 | 0.00 | 88 | 1004.7 |
| 20260508080214 | 36 | 0 | 0.0 | 0.0 | 0.00 | 0.00 | 0.00 | 88 | 1004.6 |
| 20260508075504 | 36 | 322 | 0.0 | 2.6 | 0.00 | 0.00 | 0.00 | 88 | 1004.6 |
| 20260508075003 | 36 | 322 | 0.0 | 2.6 | 0.00 | 0.00 | 0.00 | 88 | 1004.5 |
| 20260508074503 | 36 | 322 | 0.0 | 1.7 | 0.00 | 0.00 | 0.00 | 88 | 1004.4 |
| 20260508074003 | 36 | 322 | 0.0 | 1.7 | 0.00 | 0.00 | 0.00 | 87 | 1004.4 |
| 20260508073503 | 36 | 0 | 0.0 | 0.0 | 0.00 | 0.00 | 0.00 | 87 | 1004.4 |
| 20260508073005 | 36 | 0 | 0.0 | 0.0 | 0.00 | 0.01 | 0.00 | 87 | 1004.4 |
| 20260508072503 | 36 | 0 | 0.0 | 0.0 | 0.00 | 0.01 | 0.00 | 86 | 1004.5 |
| 20260508072004 | 36 | 0 | 0.0 | 0.0 | 0.00 | 0.01 | 0.00 | 86 | 1004.4 |
| 20260508071505 | 36 | 0 | 0.0 | 0.0 | 0.00 | 0.01 | 0.00 | 86 | 1004.5 |
| 20260508071004 | 37 | 0 | 0.0 | 0.0 | 0.00 | 0.01 | 0.00 | 86 | 1004.5 |
| 20260508070503 | 37 | 322 | 0.0 | 1.7 | 0.00 | 0.01 | 0.00 | 85 | 1004.5 |
| 20260508070003 | 37 | 322 | 0.0 | 1.7 | 0.00 | 0.01 | 0.00 | 84 | 1004.4 |
| 20260508065503 | 37 | 322 | 0.0 | 1.7 | 0.00 | 0.01 | 0.00 | 84 | 1004.4 |
| 20260508065003 | 37 | 322 | 0.0 | 1.7 | 0.00 | 0.01 | 0.00 | 83 | 1004.4 |
| 20260508064504 | 37 | 322 | 0.9 | 2.6 | 0.00 | 0.02 | 0.00 | 83 | 1004.5 |
| 20260508064003 | 38 | 322 | 0.9 | 2.6 | 0.00 | 0.02 | 0.00 | 83 | 1004.5 |
| 20260508063714 | 38 | 322 | 0.9 | 4.3 | 0.00 | 0.02 | 0.00 | 83 | 1004.5 |
| 20260508063003 | 38 | 324 | 0.9 | 4.3 | 0.00 | 0.02 | 0.00 | 84 | 1004.5 |
| 20260508062503 | 38 | 328 | 0.9 | 2.6 | 0.00 | 0.02 | 0.00 | 84 | 1004.5 |
| 20260508062003 | 38 | 328 | 0.9 | 2.6 | 0.00 | 0.02 | 0.00 | 82 | 1004.5 |
| 20260508061503 | 39 | 328 | 0.9 | 2.6 | 0.00 | 0.03 | 0.00 | 82 | 1004.6 |
| 20260508061004 | 39 | 328 | 0.9 | 1.7 | 0.00 | 0.06 | 0.00 | 81 | 1004.6 |
| 20260508060714 | 39 | 328 | 0.9 | 1.7 | 0.00 | 0.09 | 0.00 | 81 | 1004.7 |
| 20260508060213 | 39 | 328 | 0.9 | 1.7 | 0.00 | 0.13 | 0.00 | 80 | 1004.8 |
| 20260508055504 | 39 | 328 | 0.0 | 0.9 | 0.00 | 0.22 | 0.00 | 80 | 1004.7 |
| 20260508055003 | 39 | 328 | 0.9 | 2.6 | 0.00 | 0.22 | 0.00 | 80 | 1004.8 |
| 20260508054503 | 40 | 324 | 1.7 | 7.8 | 0.00 | 0.22 | 0.00 | 80 | 1004.8 |
| 20260508054003 | 40 | 324 | 3.5 | 7.8 | 0.00 | 0.22 | 0.00 | 80 | 1004.7 |
| 20260508053503 | 40 | 325 | 2.6 | 7.8 | 0.00 | 0.22 | 0.00 | 77 | 1004.7 |
| 20260508053213 | 40 | 327 | 1.7 | 7.8 | 0.00 | 0.22 | 0.00 | 78 | 1004.7 |
| 20260508052503 | 41 | 0 | 0.0 | 0.0 | 0.00 | 0.22 | 0.00 | 78 | 1004.8 |
| 20260508052213 | 41 | 0 | 0.0 | 0.0 | 0.00 | 0.22 | 0.00 | 77 | 1004.9 |
| 20260508051504 | 42 | 0 | 0.0 | 0.0 | 0.00 | 0.23 | 0.00 | 76 | 1005.0 |
| 20260508051003 | 42 | 327 | 0.0 | 1.7 | 0.00 | 0.23 | 0.00 | 76 | 1005.1 |
| 20260508050504 | 43 | 327 | 0.9 | 2.6 | 0.00 | 0.23 | 0.00 | 74 | 1005.0 |
| 20260508050003 | 43 | 327 | 1.7 | 2.6 | 0.00 | 0.23 | 0.00 | 73 | 1005.0 |
| 20260508045503 | 44 | 327 | 1.7 | 3.5 | 0.00 | 0.23 | 0.00 | 73 | 1005.0 |
| 20260508045003 | 44 | 327 | 1.7 | 3.5 | 0.00 | 0.23 | 0.00 | 72 | 1004.9 |
| 20260508044503 | 44 | 327 | 1.7 | 4.3 | 0.00 | 0.23 | 0.00 | 70 | 1005.0 |
| 20260508044003 | 44 | 328 | 2.6 | 6.1 | 0.00 | 0.23 | 0.00 | 67 | 1005.1 |
| 20260508043503 | 44 | 331 | 3.5 | 6.1 | 0.00 | 0.23 | 0.00 | 66 | 1005.1 |
| 20260508043003 | 44 | 335 | 4.3 | 7.8 | 0.00 | 0.23 | 0.00 | 67 | 1005.0 |
| 20260508042503 | 44 | 338 | 4.3 | 8.7 | 0.00 | 0.23 | 0.00 | 66 | 1005.1 |
| 20260508042003 | 44 | 338 | 4.3 | 8.7 | 0.00 | 0.23 | 0.00 | 66 | 1005.1 |
| 20260508041505 | 44 | 337 | 4.3 | 7.8 | 0.00 | 0.23 | 0.00 | 66 | 1005.1 |
| 20260508041004 | 44 | 337 | 4.3 | 9.6 | 0.00 | 0.23 | 0.00 | 66 | 1005.1 |
| 20260508040713 | 44 | 339 | 4.3 | 9.6 | 0.00 | 0.23 | 0.00 | 66 | 1005.2 |
| 20260508040005 | 44 | 335 | 3.5 | 7.8 | 0.00 | 0.23 | 0.00 | 68 | 1005.3 |
| 20260508035503 | 44 | 334 | 3.5 | 7.8 | 0.00 | 0.23 | 0.23 | 68 | 1005.3 |
| 20260508035214 | 44 | 335 | 3.5 | 7.8 | 0.00 | 0.23 | 0.23 | 68 | 1005.3 |
| 20260508034504 | 43 | 331 | 3.5 | 7.0 | 0.00 | 0.23 | 0.23 | 69 | 1005.3 |
| 20260508034003 | 43 | 335 | 3.5 | 7.0 | 0.00 | 0.23 | 0.23 | 71 | 1005.5 |
| 20260508033503 | 43 | 347 | 2.6 | 6.1 | 0.00 | 0.24 | 0.23 | 74 | 1005.5 |
| 20260508033004 | 44 | 355 | 1.7 | 2.6 | 0.00 | 0.24 | 0.23 | 77 | 1005.4 |
| 20260508032503 | 44 | 355 | 1.7 | 2.6 | 0.00 | 0.24 | 0.23 | 75 | 1005.3 |
| 20260508032214 | 45 | 355 | 0.9 | 2.6 | 0.00 | 0.24 | 0.23 | 73 | 1005.4 |
| 20260508031503 | 46 | 355 | 1.7 | 2.6 | 0.00 | 0.25 | 0.23 | 73 | 1005.3 |
| 20260508031003 | 46 | 355 | 0.9 | 2.6 | 0.00 | 0.25 | 0.23 | 71 | 1005.4 |
| 20260508030503 | 47 | 355 | 1.7 | 3.5 | 0.00 | 0.26 | 0.23 | 70 | 1005.4 |
| 20260508030003 | 47 | 355 | 1.7 | 3.5 | 0.00 | 0.26 | 0.23 | 67 | 1005.5 |
| 20260508025503 | 47 | 355 | 1.7 | 3.5 | 0.00 | 0.27 | 0.23 | 68 | 1005.3 |
| 20260508025003 | 48 | 355 | 1.7 | 4.3 | 0.00 | 0.28 | 0.23 | 63 | 1005.2 |
| 20260508024503 | 48 | 354 | 3.5 | 7.8 | 0.00 | 0.29 | 0.23 | 60 | 1005.2 |
| 20260508024003 | 48 | 351 | 4.3 | 8.7 | 0.00 | 0.30 | 0.23 | 60 | 1005.0 |
| 20260508023503 | 48 | 348 | 4.3 | 8.7 | 0.00 | 0.32 | 0.23 | 60 | 1005.1 |
| 20260508023003 | 48 | 348 | 5.2 | 10.4 | 0.00 | 0.34 | 0.23 | 61 | 1005.2 |
| 20260508022503 | 48 | 349 | 4.3 | 10.4 | 0.00 | 0.35 | 0.23 | 62 | 1005.2 |
| 20260508022003 | 48 | 350 | 4.3 | 7.8 | 0.00 | 0.35 | 0.23 | 65 | 1005.2 |
| 20260508021503 | 48 | 352 | 3.5 | 7.8 | 0.00 | 0.36 | 0.23 | 63 | 1005.2 |
| 20260508021003 | 49 | 352 | 3.5 | 7.8 | 0.00 | 0.37 | 0.23 | 64 | 1005.3 |
| 20260508020503 | 49 | 351 | 3.5 | 7.0 | 0.00 | 0.39 | 0.23 | 65 | 1005.3 |
| 20260508020003 | 49 | 352 | 6.1 | 11.3 | 0.00 | 0.41 | 0.23 | 64 | 1005.3 |
| 20260508015504 | 50 | 351 | 7.0 | 11.3 | 0.00 | 0.42 | 0.23 | 60 | 1005.4 |
| 20260508015003 | 50 | 349 | 7.8 | 14.8 | 0.00 | 0.43 | 0.23 | 60 | 1005.4 |
| 20260508014712 | 50 | 351 | 8.7 | 14.8 | 0.00 | 0.44 | 0.23 | 61 | 1005.4 |
| 20260508014004 | 50 | 355 | 7.8 | 12.2 | 0.00 | 0.46 | 0.23 | 62 | 1005.2 |
| 20260508013503 | 50 | 358 | 7.8 | 11.3 | 0.00 | 0.49 | 0.23 | 65 | 1005.3 |
| 20260508013004 | 50 | 2 | 7.8 | 13.0 | 0.00 | 0.50 | 0.23 | 63 | 1005.3 |
| 20260508012714 | 50 | 3 | 8.7 | 13.0 | 0.00 | 0.51 | 0.23 | 62 | 1005.3 |
| 20260508012003 | 50 | 4 | 8.7 | 13.9 | 0.00 | 0.52 | 0.23 | 63 | 1005.1 |
| 20260508011503 | 51 | 3 | 9.6 | 13.9 | 0.00 | 0.53 | 0.23 | 62 | 1005.2 |
| 20260508011003 | 51 | 1 | 9.6 | 13.9 | 0.00 | 0.53 | 0.23 | 63 | 1005.0 |
| 20260508010503 | 51 | 359 | 11.3 | 16.5 | 0.00 | 0.54 | 0.23 | 64 | 1005.0 |
| 20260508010213 | 51 | 359 | 12.2 | 16.5 | 0.00 | 0.55 | 0.23 | 64 | 1004.9 |
| 20260508005503 | 51 | 353 | 11.3 | 18.2 | 0.00 | 0.57 | 0.23 | 65 | 1004.9 |
| 20260508005003 | 51 | 354 | 11.3 | 18.2 | 0.00 | 0.58 | 0.23 | 69 | 1004.8 |
| 20260508004503 | 50 | 354 | 9.6 | 15.6 | 0.00 | 0.60 | 0.23 | 76 | 1004.7 |
| 20260508004004 | 50 | 351 | 7.8 | 13.0 | 0.00 | 0.61 | 0.23 | 79 | 1004.7 |
| 20260508003503 | 50 | 344 | 5.2 | 12.2 | 0.00 | 0.63 | 0.23 | 82 | 1004.6 |
| 20260508003003 | 50 | 330 | 3.5 | 7.0 | 0.00 | 0.64 | 0.23 | 82 | 1004.4 |
| 20260508002504 | 50 | 336 | 2.6 | 6.1 | 0.00 | 0.66 | 0.23 | 82 | 1004.4 |
| 20260508002003 | 50 | 338 | 1.7 | 4.3 | 0.00 | 0.68 | 0.23 | 82 | 1004.3 |
| 20260508001503 | 50 | 339 | 1.7 | 4.3 | 0.00 | 0.70 | 0.23 | 81 | 1004.3 |
| 20260508001003 | 50 | 339 | 2.6 | 4.3 | 0.00 | 0.72 | 0.23 | 81 | 1004.2 |
| 20260508000503 | 50 | 356 | 2.6 | 7.8 | 0.00 | 0.73 | 0.23 | 81 | 1004.0 |
| 20260508000003 | 50 | 10 | 4.3 | 8.7 | 0.00 | 0.75 | 0.23 | 81 | 1003.9 |
| 20260507235503 | 50 | 352 | 2.6 | 8.7 | 0.00 | 0.76 | 0.23 | 80 | 1003.8 |
| 20260507235003 | 51 | 260 | 1.7 | 7.0 | 0.00 | 0.76 | 0.23 | 77 | 1003.4 |
| 20260507234503 | 51 | 252 | 1.7 | 7.0 | 0.00 | 0.76 | 0.23 | 77 | 1003.0 |
| 20260507234003 | 51 | 248 | 0.9 | 4.3 | 0.00 | 0.77 | 0.23 | 76 | 1003.0 |
| 20260507233505 | 51 | 251 | 0.9 | 5.2 | 0.00 | 0.77 | 0.23 | 76 | 1002.9 |
| 20260507233003 | 51 | 255 | 1.7 | 7.0 | 0.00 | 0.77 | 0.23 | 76 | 1002.8 |
| 20260507232503 | 52 | 240 | 1.7 | 7.0 | 0.00 | 0.77 | 0.23 | 75 | 1002.7 |
| 20260507232003 | 52 | 227 | 1.7 | 6.1 | 0.00 | 0.78 | 0.23 | 75 | 1002.7 |
| 20260507231503 | 52 | 228 | 0.9 | 5.2 | 0.00 | 0.78 | 0.23 | 74 | 1002.7 |
| 20260507231003 | 52 | 220 | 0.9 | 6.1 | 0.00 | 0.78 | 0.23 | 74 | 1002.6 |
| 20260507230503 | 52 | 239 | 1.7 | 6.1 | 0.00 | 0.78 | 0.23 | 73 | 1002.6 |
| 20260507230004 | 53 | 251 | 0.9 | 5.2 | 0.00 | 0.78 | 0.23 | 73 | 1002.5 |
| 20260507225503 | 53 | 251 | 0.9 | 3.5 | 0.00 | 0.79 | 0.23 | 72 | 1002.4 |
| 20260507225003 | 53 | 240 | 1.7 | 4.3 | 0.00 | 0.79 | 0.23 | 72 | 1002.3 |
| 20260507224713 | 53 | 229 | 1.7 | 4.3 | 0.00 | 0.79 | 0.23 | 72 | 1002.3 |
| 20260507224003 | 54 | 221 | 1.7 | 5.2 | 0.00 | 0.80 | 0.23 | 71 | 1002.3 |
| 20260507223503 | 54 | 233 | 2.6 | 10.4 | 0.00 | 0.80 | 0.23 | 70 | 1002.2 |
| 20260507223003 | 54 | 241 | 2.6 | 10.4 | 0.00 | 0.80 | 0.23 | 70 | 1002.2 |
| 20260507222503 | 55 | 243 | 2.6 | 7.8 | 0.00 | 0.81 | 0.23 | 69 | 1002.3 |
| 20260507222003 | 55 | 238 | 2.6 | 8.7 | 0.00 | 0.81 | 0.23 | 69 | 1002.2 |
| 20260507221715 | 55 | 238 | 3.5 | 9.6 | 0.00 | 0.81 | 0.23 | 69 | 1002.2 |
| 20260507221003 | 55 | 234 | 2.6 | 10.4 | 0.00 | 0.82 | 0.23 | 68 | 1002.3 |
| 20260507220503 | 56 | 239 | 2.6 | 9.6 | 0.00 | 0.82 | 0.23 | 69 | 1002.4 |
| 20260507220003 | 55 | 232 | 3.5 | 9.6 | 0.00 | 0.82 | 0.23 | 69 | 1002.3 |
| 20260507215503 | 55 | 220 | 2.6 | 9.6 | 0.00 | 0.82 | 0.23 | 70 | 1002.3 |
| 20260507215003 | 55 | 213 | 2.6 | 11.3 | 0.00 | 0.83 | 0.23 | 70 | 1002.3 |
| 20260507214503 | 55 | 217 | 3.5 | 11.3 | 0.00 | 0.83 | 0.23 | 69 | 1002.2 |
| 20260507214003 | 55 | 214 | 4.3 | 11.3 | 0.00 | 0.83 | 0.23 | 68 | 1002.3 |
| 20260507213503 | 56 | 213 | 5.2 | 12.2 | 0.00 | 0.83 | 0.23 | 68 | 1002.3 |
| 20260507213003 | 56 | 219 | 4.3 | 14.8 | 0.00 | 0.83 | 0.23 | 68 | 1002.3 |
| 20260507212503 | 56 | 221 | 4.3 | 14.8 | 0.00 | 0.83 | 0.23 | 68 | 1002.3 |
| 20260507212003 | 56 | 221 | 4.3 | 13.0 | 0.00 | 0.83 | 0.23 | 68 | 1002.4 |
| 20260507211503 | 56 | 229 | 4.3 | 13.0 | 0.00 | 0.83 | 0.23 | 68 | 1002.3 |
| 20260507211003 | 56 | 236 | 4.3 | 10.4 | 0.00 | 0.83 | 0.23 | 67 | 1002.3 |
| 20260507210714 | 56 | 241 | 3.5 | 11.3 | 0.00 | 0.83 | 0.23 | 66 | 1002.4 |
| 20260507210004 | 56 | 227 | 4.3 | 11.3 | 0.00 | 0.83 | 0.23 | 66 | 1002.3 |
| 20260507205503 | 56 | 230 | 4.3 | 11.3 | 0.00 | 0.83 | 0.23 | 64 | 1002.3 |
| 20260507205003 | 57 | 236 | 4.3 | 11.3 | 0.00 | 0.83 | 0.23 | 64 | 1002.3 |
| 20260507204503 | 57 | 232 | 5.2 | 13.9 | 0.00 | 0.83 | 0.23 | 62 | 1002.2 |
| 20260507204003 | 58 | 225 | 5.2 | 13.9 | 0.00 | 0.83 | 0.23 | 60 | 1002.2 |
| 20260507203714 | 58 | 220 | 4.3 | 13.9 | 0.00 | 0.83 | 0.23 | 60 | 1002.2 |
| 20260507203003 | 59 | 222 | 5.2 | 14.8 | 0.00 | 0.83 | 0.23 | 60 | 1002.1 |
| 20260507202503 | 59 | 226 | 6.1 | 14.8 | 0.00 | 0.83 | 0.23 | 60 | 1002.1 |
| 20260507202003 | 59 | 235 | 6.1 | 18.2 | 0.00 | 0.83 | 0.23 | 60 | 1002.1 |
| 20260507201503 | 60 | 235 | 5.2 | 18.2 | 0.00 | 0.83 | 0.23 | 60 | 1002.1 |
| 20260507201003 | 60 | 231 | 4.3 | 12.2 | 0.00 | 0.83 | 0.23 | 61 | 1002.1 |
| 20260507200714 | 60 | 221 | 4.3 | 13.9 | 0.00 | 0.83 | 0.23 | 61 | 1002.1 |
| 20260507200003 | 60 | 217 | 4.3 | 13.9 | 0.00 | 0.83 | 0.23 | 60 | 1002.1 |
| 20260507195504 | 60 | 224 | 5.2 | 13.0 | 0.00 | 0.83 | 0.23 | 61 | 1002.0 |
| 20260507195003 | 60 | 230 | 5.2 | 13.0 | 0.00 | 0.83 | 0.23 | 62 | 1002.0 |
| 20260507194503 | 60 | 237 | 5.2 | 13.0 | 0.00 | 0.83 | 0.23 | 62 | 1002.1 |
| 20260507194003 | 59 | 226 | 5.2 | 13.9 | 0.00 | 0.83 | 0.23 | 63 | 1002.1 |
| 20260507193503 | 60 | 220 | 5.2 | 13.9 | 0.00 | 0.83 | 0.23 | 63 | 1002.1 |
| 20260507193003 | 60 | 229 | 5.2 | 13.0 | 0.00 | 0.83 | 0.23 | 64 | 1002.0 |
| 20260507192504 | 60 | 233 | 5.2 | 13.0 | 0.00 | 0.83 | 0.23 | 62 | 1002.0 |
| 20260507192213 | 61 | 234 | 3.5 | 13.0 | 0.00 | 0.83 | 0.23 | 63 | 1002.0 |
| 20260507191503 | 61 | 239 | 3.5 | 12.2 | 0.00 | 0.83 | 0.23 | 66 | 1002.1 |
| 20260507191003 | 61 | 227 | 4.3 | 12.2 | 0.00 | 0.83 | 0.23 | 64 | 1002.1 |
| 20260507190504 | 61 | 220 | 5.2 | 12.2 | 0.00 | 0.83 | 0.23 | 63 | 1002.1 |
| 20260507190005 | 62 | 239 | 6.1 | 16.5 | 0.00 | 0.83 | 0.23 | 61 | 1002.2 |
| 20260507185503 | 62 | 227 | 7.0 | 16.5 | 0.00 | 0.83 | 0.23 | 60 | 1002.1 |
| 20260507185003 | 62 | 218 | 6.1 | 14.8 | 0.00 | 0.83 | 0.23 | 60 | 1002.2 |
| 20260507184714 | 63 | 219 | 5.2 | 14.8 | 0.00 | 0.83 | 0.23 | 59 | 1002.2 |
| 20260507184003 | 62 | 224 | 6.1 | 14.8 | 0.00 | 0.83 | 0.23 | 61 | 1002.1 |
| 20260507183503 | 62 | 227 | 5.2 | 13.0 | 0.00 | 0.83 | 0.23 | 57 | 1002.2 |
| 20260507183213 | 62 | 234 | 4.3 | 10.4 | 0.00 | 0.83 | 0.23 | 58 | 1002.2 |
| 20260507182503 | 62 | 226 | 4.3 | 14.8 | 0.00 | 0.83 | 0.23 | 59 | 1002.1 |
| 20260507182212 | 62 | 225 | 5.2 | 14.8 | 0.00 | 0.83 | 0.23 | 59 | 1002.2 |
| 20260507181503 | 61 | 203 | 4.3 | 13.9 | 0.00 | 0.83 | 0.23 | 62 | 1002.4 |
| 20260507181003 | 60 | 189 | 3.5 | 13.9 | 0.00 | 0.83 | 0.23 | 66 | 1002.3 |
| 20260507180503 | 59 | 186 | 2.6 | 12.2 | 0.00 | 0.83 | 0.23 | 65 | 1002.4 |
| 20260507180003 | 59 | 172 | 1.7 | 6.1 | 0.00 | 0.83 | 0.23 | 66 | 1002.4 |
| 20260507175503 | 59 | 150 | 3.5 | 9.6 | 0.00 | 0.83 | 0.23 | 67 | 1002.6 |
| 20260507175003 | 59 | 150 | 4.3 | 9.6 | 0.00 | 0.83 | 0.23 | 67 | 1002.5 |
| 20260507174503 | 58 | 159 | 4.3 | 8.7 | 0.00 | 0.83 | 0.23 | 66 | 1002.7 |
| 20260507174003 | 58 | 155 | 3.5 | 8.7 | 0.00 | 0.83 | 0.23 | 68 | 1002.5 |
| 20260507173503 | 58 | 153 | 3.5 | 8.7 | 0.00 | 0.83 | 0.23 | 66 | 1002.5 |
| 20260507173004 | 58 | 158 | 2.6 | 7.8 | 0.00 | 0.83 | 0.23 | 64 | 1002.5 |
| 20260507172504 | 59 | 170 | 3.5 | 8.7 | 0.00 | 0.83 | 0.23 | 61 | 1002.4 |
| 20260507172003 | 59 | 170 | 3.5 | 9.6 | 0.00 | 0.83 | 0.23 | 65 | 1002.5 |
| 20260507171503 | 59 | 157 | 2.6 | 9.6 | 0.00 | 0.83 | 0.23 | 65 | 1002.6 |
| 20260507171003 | 58 | 132 | 3.5 | 8.7 | 0.00 | 0.83 | 0.23 | 67 | 1002.7 |
| 20260507170503 | 59 | 101 | 3.5 | 8.7 | 0.00 | 0.83 | 0.23 | 62 | 1002.7 |
| 20260507170214 | 59 | 33 | 2.6 | 8.7 | 0.00 | 0.83 | 0.23 | 62 | 1002.7 |
| 20260507165503 | 59 | 351 | 5.2 | 17.4 | 0.00 | 0.83 | 0.23 | 60 | 1002.8 |
| 20260507165004 | 59 | 350 | 6.1 | 17.4 | 0.00 | 0.83 | 0.23 | 61 | 1002.9 |
| 20260507164503 | 59 | 354 | 5.2 | 10.4 | 0.00 | 0.83 | 0.23 | 62 | 1002.9 |
| 20260507164214 | 59 | 353 | 6.1 | 12.2 | 0.00 | 0.83 | 0.23 | 57 | 1002.9 |
| 20260507163503 | 59 | 354 | 7.0 | 12.2 | 0.00 | 0.83 | 0.23 | 58 | 1003.0 |
| 20260507163003 | 59 | 357 | 6.1 | 9.6 | 0.00 | 0.83 | 0.23 | 61 | 1003.0 |
| 20260507162713 | 59 | 356 | 4.3 | 9.6 | 0.00 | 0.83 | 0.23 | 62 | 1003.1 |
| 20260507162003 | 59 | 356 | 1.7 | 7.0 | 0.00 | 0.83 | 0.23 | 60 | 1003.2 |
| 20260507161503 | 58 | 1 | 2.6 | 7.0 | 0.00 | 0.83 | 0.23 | 63 | 1003.2 |
| 20260507161003 | 58 | 9 | 2.6 | 7.0 | 0.00 | 0.83 | 0.23 | 63 | 1003.3 |
| 20260507160503 | 58 | 7 | 3.5 | 7.0 | 0.00 | 0.83 | 0.23 | 62 | 1003.4 |
| 20260507160005 | 58 | 1 | 3.5 | 7.0 | 0.00 | 0.83 | 0.23 | 62 | 1003.5 |
| 20260507155503 | 58 | 1 | 1.7 | 5.2 | 0.00 | 0.83 | 0.23 | 64 | 1003.6 |
| 20260507155003 | 58 | 4 | 2.6 | 5.2 | 0.00 | 0.83 | 0.23 | 64 | 1003.8 |
| 20260507154503 | 58 | 13 | 3.5 | 7.8 | 0.00 | 0.83 | 0.23 | 67 | 1003.8 |
| 20260507154213 | 58 | 14 | 4.3 | 7.8 | 0.00 | 0.83 | 0.23 | 66 | 1003.8 |
| 20260507153713 | 58 | 12 | 2.6 | 7.0 | 0.00 | 0.83 | 0.23 | 68 | 1003.8 |
| 20260507153004 | 57 | 360 | 2.6 | 7.8 | 0.00 | 0.83 | 0.23 | 67 | 1004.0 |
| 20260507152503 | 57 | 358 | 4.3 | 10.4 | 0.00 | 0.83 | 0.23 | 68 | 1004.1 |
| 20260507152213 | 57 | 353 | 4.3 | 10.4 | 0.00 | 0.83 | 0.23 | 65 | 1004.1 |
| 20260507151504 | 56 | 351 | 6.1 | 12.2 | 0.00 | 0.83 | 0.23 | 66 | 1004.1 |
| 20260507151003 | 56 | 355 | 6.1 | 10.4 | 0.00 | 0.83 | 0.23 | 70 | 1004.0 |
| 20260507150503 | 56 | 353 | 4.3 | 8.7 | 0.00 | 0.83 | 0.23 | 70 | 1004.0 |
| 20260507150003 | 56 | 350 | 5.2 | 10.4 | 0.00 | 0.83 | 0.23 | 68 | 1004.0 |
| 20260507145503 | 56 | 351 | 6.1 | 10.4 | 0.00 | 0.83 | 0.23 | 70 | 1004.1 |
| 20260507145003 | 56 | 345 | 3.5 | 9.6 | 0.00 | 0.83 | 0.23 | 70 | 1004.2 |
| 20260507144503 | 56 | 337 | 2.6 | 6.1 | 0.00 | 0.83 | 0.23 | 72 | 1004.2 |
| 20260507144213 | 56 | 341 | 2.6 | 7.0 | 0.00 | 0.83 | 0.23 | 71 | 1004.3 |
| 20260507143714 | 56 | 343 | 2.6 | 7.0 | 0.00 | 0.83 | 0.23 | 71 | 1004.3 |
| 20260507143003 | 56 | 334 | 2.6 | 7.8 | 0.00 | 0.83 | 0.23 | 72 | 1004.4 |
| 20260507142504 | 55 | 342 | 3.5 | 7.8 | 0.00 | 0.83 | 0.23 | 74 | 1004.6 |
| 20260507142003 | 55 | 345 | 3.5 | 7.0 | 0.00 | 0.83 | 0.23 | 75 | 1004.5 |
| 20260507141503 | 55 | 338 | 2.6 | 7.8 | 0.00 | 0.83 | 0.23 | 76 | 1004.5 |
| 20260507141003 | 54 | 332 | 3.5 | 7.8 | 0.00 | 0.83 | 0.23 | 76 | 1004.7 |
| 20260507140503 | 54 | 337 | 3.5 | 8.7 | 0.00 | 0.83 | 0.23 | 78 | 1004.8 |
| 20260507140004 | 54 | 341 | 3.5 | 8.7 | 0.00 | 0.83 | 0.23 | 77 | 1004.8 |
| 20260507135503 | 54 | 339 | 1.7 | 4.3 | 0.00 | 0.83 | 0.23 | 79 | 1004.7 |
| 20260507135003 | 53 | 338 | 1.7 | 4.3 | 0.00 | 0.83 | 0.23 | 81 | 1004.7 |
| 20260507134503 | 53 | 337 | 1.7 | 6.1 | 0.00 | 0.83 | 0.23 | 81 | 1005.0 |
| 20260507134003 | 52 | 344 | 2.6 | 7.0 | 0.00 | 0.83 | 0.23 | 81 | 1005.1 |
| 20260507133503 | 52 | 349 | 3.5 | 7.0 | 0.00 | 0.83 | 0.23 | 82 | 1005.1 |
| 20260507133003 | 52 | 351 | 4.3 | 13.0 | 0.00 | 0.83 | 0.23 | 82 | 1005.2 |
| 20260507132503 | 51 | 350 | 7.8 | 16.5 | 0.00 | 0.83 | 0.23 | 83 | 1005.2 |
| 20260507132003 | 51 | 349 | 10.4 | 16.5 | 0.00 | 0.83 | 0.23 | 84 | 1004.9 |
| 20260507131505 | 51 | 350 | 10.4 | 18.2 | 0.00 | 0.83 | 0.23 | 85 | 1005.0 |
| 20260507131003 | 50 | 349 | 9.6 | 18.2 | 0.00 | 0.83 | 0.23 | 85 | 1004.9 |
| 20260507130503 | 50 | 345 | 8.7 | 14.8 | 0.00 | 0.83 | 0.23 | 86 | 1005.1 |
| 20260507130004 | 50 | 345 | 8.7 | 15.6 | 0.00 | 0.83 | 0.23 | 87 | 1005.1 |
| 20260507125503 | 49 | 348 | 9.6 | 16.5 | 0.00 | 0.83 | 0.23 | 88 | 1005.0 |
| 20260507125003 | 49 | 352 | 7.0 | 16.5 | 0.00 | 0.83 | 0.23 | 89 | 1004.6 |
| 20260507124713 | 49 | 353 | 6.1 | 11.3 | 0.00 | 0.83 | 0.23 | 90 | 1004.8 |
| 20260507124003 | 48 | 351 | 5.2 | 9.6 | 0.00 | 0.83 | 0.23 | 90 | 1004.8 |
| 20260507123504 | 48 | 343 | 4.3 | 9.6 | 0.00 | 0.83 | 0.23 | 91 | 1004.8 |
| 20260507123004 | 48 | 340 | 4.3 | 7.0 | 0.00 | 0.83 | 0.23 | 91 | 1004.5 |
| 20260507122503 | 48 | 340 | 3.5 | 7.0 | 0.00 | 0.83 | 0.23 | 92 | 1004.4 |
| 20260507122214 | 47 | 342 | 3.5 | 7.0 | 0.00 | 0.83 | 0.23 | 92 | 1004.3 |
| 20260507121504 | 47 | 351 | 2.6 | 7.0 | 0.00 | 0.83 | 0.23 | 92 | 1004.9 |
| 20260507121003 | 47 | 345 | 1.7 | 6.1 | 0.00 | 0.83 | 0.23 | 93 | 1004.5 |
| 20260507120503 | 47 | 340 | 2.6 | 7.0 | 0.00 | 0.83 | 0.23 | 93 | 1004.9 |
| 20260507120004 | 47 | 344 | 3.5 | 7.8 | 0.00 | 0.83 | 0.23 | 93 | 1005.3 |
| 20260507115503 | 47 | 346 | 5.2 | 8.7 | 0.00 | 0.83 | 0.23 | 93 | 1005.5 |
| 20260507115214 | 47 | 345 | 5.2 | 8.7 | 0.00 | 0.83 | 0.23 | 94 | 1005.0 |
| 20260507114503 | 47 | 336 | 2.6 | 7.0 | 0.00 | 0.83 | 0.23 | 94 | 1004.8 |
| 20260507114214 | 47 | 336 | 2.6 | 7.0 | 0.00 | 0.83 | 0.23 | 94 | 1005.2 |
| 20260507113503 | 47 | 337 | 0.9 | 4.3 | 0.00 | 0.83 | 0.23 | 94 | 1005.9 |
| 20260507113003 | 47 | 337 | 0.9 | 3.5 | 0.00 | 0.83 | 0.23 | 94 | 1005.4 |
| 20260507112503 | 47 | 337 | 0.9 | 3.5 | 0.00 | 0.83 | 0.23 | 94 | 1005.6 |
| 20260507112003 | 47 | 337 | 0.9 | 4.3 | 0.00 | 0.83 | 0.23 | 94 | 1005.7 |
| 20260507111503 | 47 | 337 | 1.7 | 6.1 | 0.00 | 0.83 | 0.23 | 94 | 1005.5 |
| 20260507111003 | 46 | 337 | 2.6 | 6.1 | 0.00 | 0.83 | 0.23 | 94 | 1005.2 |
| 20260507110503 | 46 | 333 | 3.5 | 7.8 | 0.00 | 0.83 | 0.23 | 94 | 1005.1 |
| 20260507110003 | 46 | 334 | 3.5 | 7.8 | 0.00 | 0.83 | 0.23 | 94 | 1005.0 |
| 20260507105713 | 46 | 335 | 3.5 | 7.8 | 0.00 | 0.83 | 0.23 | 94 | 1005.3 |
| 20260507105003 | 46 | 341 | 2.6 | 7.8 | 0.00 | 0.83 | 0.23 | 94 | 1005.2 |
| 20260507104504 | 46 | 339 | 2.6 | 6.1 | 0.00 | 0.83 | 0.23 | 95 | 1004.4 |
| 20260507104005 | 46 | 337 | 3.5 | 7.8 | 0.00 | 0.83 | 0.23 | 95 | 1004.8 |
| 20260507103713 | 46 | 338 | 3.5 | 8.7 | 0.00 | 0.83 | 0.23 | 95 | 1004.8 |
| 20260507103213 | 46 | 345 | 5.2 | 9.6 | 0.00 | 0.83 | 0.23 | 95 | 1004.8 |
| 20260507102503 | 47 | 346 | 4.3 | 9.6 | 0.00 | 0.83 | 0.23 | 95 | 1004.4 |
| 20260507102003 | 47 | 343 | 2.6 | 7.0 | 0.00 | 0.83 | 0.23 | 95 | 1004.2 |
| 20260507101503 | 47 | 343 | 1.7 | 7.0 | 0.00 | 0.83 | 0.23 | 96 | 1004.5 |
| 20260507101003 | 47 | 343 | 1.7 | 5.2 | 0.00 | 0.83 | 0.23 | 96 | 1004.4 |